Vorticity
1 1 0 0 0 1 2 2 3 4 5 6 7 8 8 8 8 9 9 9 9 9 9 9 9 9 9 9 9 9 9 9 9 9 9 9 9 9 9 9 10 10 10 10 10 10 11 11 10 10 10 10 10 10 11 11 11 11 11 11 11 11 10 10 10 9 9 9 8
0 -0 -0 -0 0 1 2 3 4 5 6 7 8 9 9 9 9 9 9 10 10 9 9 9 9 9 9 9 9 9 9 9 9 9 9 9 9 9 9 9 9 10 10 10 10 10 10 11 10 10 9 10 10 10 11 12 11 11 11 11 11 10 10 10 10 9 9 8 8
-0 -1 -1 -0 0 1 2 3 5 6 7 8 9 9 10 10 10 10 10 10 10 10 9 9 9 9 9 9 9 10 10 10 9 9 10 10 10 10 10 9 9 10 10 10 10 10 10 10 10 9 8 9 10 10 10 11 11 11 10 10 9 9 9 10 10 9 9 9 9
-1 -1 -1 -0 1 2 3 5 6 7 9 10 10 10 10 10 10 10 10 9 10 10 10 9 9 9 9 9 9 9 10 10 10 10 10 10 10 10 10 10 10 10 10 10 10 10 10 10 9 9 9 9 9 10 10 10 10 11 10 9 8 8 8 9 9 9 9 9 8
-1 -1 -0 0 2 3 5 6 8 9 10 10 10 10 10 10 10 10 10 10 10 10 10 10 9 9 9 9 9 9 10 10 10 10 10 10 10 10 10 11 11 10 10 10 10 10 10 9 9 9 9 9 9 9 9 9 10 10 9 8 8 8 7 7 6 6 6 6 6
-2 -1 -0 1 3 4 6 8 10 10 10 10 10 10 10 10 10 10 10 10 10 10 10 10 9 9 9 9 9 9 10 10 10 10 10 10 10 10 10 11 11 11 11 11 11 11 10 9 9 9 9 9 9 9 9 9 9 8 7 7 7 6 6 5 4 4 4 4 4
-2 -1 1 2 4 6 8 10 10 11 11 11 11 11 11 11 11 11 11 10 10 10 10 10 9 9 9 9 9 10 10 10 10 10 10 10 10 10 10 10 10 10 11 11 11 11 11 10 9 8 8 9 8 8 8 9 8 7 6 5 5 5 5 4 4 4 4 4 4
-1 1 2 4 6 8 10 11 11 11 11 12 12 12 11 11 11 11 10 10 10 10 10 10 10 10 10 9 10 10 10 10 10 10 10 10 10 10 10 10 10 10 11 10 10 10 10 10 9 8 8 8 8 8 8 8 7 7 6 5 4 4 5 4 4 4 4 5 4
0 2 5 7 9 10 11 12 12 12 12 12 12 12 12 12 11 11 11 11 11 10 10 10 10 10 10 10 10 10 10 10 10 10 10 10 10 9 9 10 10 10 10 10 10 9 8 8 8 8 8 7 7 7 7 7 7 6 6 5 4 4 5 5 5 5 5 5 5
2 5 7 10 11 12 12 12 13 13 12 12 12 12 12 11 11 11 11 10 10 10 10 10 10 10 10 10 10 10 10 10 10 10 10 10 10 10 10 10 9 9 9 9 9 8 8 7 7 7 7 8 7 6 6 7 6 6 6 6 5 5 5 5 5 5 5 5 5
5 8 10 11 12 13 13 12 13 13 13 12 12 12 11 11 11 10 10 9 9 10 10 10 9 9 10 10 10 10 10 10 10 10 10 10 10 10 10 10 10 10 10 10 9 9 8 8 7 7 7 8 7 6 6 7 7 6 6 6 6 6 5 5 5 5 4 4 4
8 10 12 13 13 13 13 13 13 13 12 12 12 11 11 10 10 9 9 9 9 9 9 9 9 9 9 9 9 10 10 10 10 10 10 10 10 11 11 11 11 11 11 11 10 10 9 9 8 8 8 8 8 8 7 7 7 7 6 6 6 6 6 5 6 5 4 4 4
11 12 13 13 13 13 13 13 12 12 12 11 11 10 10 10 9 9 8 8 9 8 8 9 9 9 9 9 9 9 9 9 9 10 10 10 10 11 11 11 12 12 12 12 12 11 10 10 10 9 9 9 9 9 9 8 8 8 7 7 7 7 6 6 6 6 5 5 5
13 13 13 13 13 13 13 12 12 12 11 10 10 9 9 9 9 9 8 8 8 8 8 8 9 9 9 9 9 9 9 9 9 10 10 10 10 11 11 11 12 12 12 12 12 11 11 10 10 10 10 9 9 9 9 9 8 8 8 7 7 7 7 7 7 6 6 6 6
14 14 13 13 13 13 12 12 11 10 10 10 9 9 9 8 8 8 8 8 8 8 8 8 9 9 10 10 9 9 9 9 10 10 10 10 10 11 11 11 11 11 11 11 11 11 11 10 10 10 10 9 9 9 9 9 9 8 8 8 8 7 7 7 8 8 8 8 8
14 13 13 13 12 12 12 11 10 10 10 9 9 9 9 8 8 8 9 9 9 9 9 9 9 9 10 10 10 10 10 10 10 10 10 10 10 10 10 10 10 10 10 10 10 10 11 11 11 10 10 10 10 10 10 10 10 9 9 9 8 8 8 9 9 9 10 10 10
13 13 13 12 12 12 11 10 10 10 9 9 9 9 9 8 8 9 9 9 9 9 10 10 10 10 10 10 10 10 10 10 10 10 10 10 10 10 10 10 10 10 10 10 10 11 11 12 11 11 11 10 10 10 10 11 10 10 10 10 10 10 10 11 11 11 12 12 13
13 13 12 12 11 11 10 10 9 9 9 9 9 9 9 9 9 9 10 10 10 10 10 10 10 10 10 10 10 11 11 10 10 11 11 10 10 10 10 11 11 11 11 12 12 12 12 12 13 13 12 12 12 12 12 12 12 12 12 13 13 13 13 13 13 14 14 14 14
13 12 12 11 11 10 10 9 9 9 9 9 9 9 9 10 10 10 10 10 11 11 10 10 10 11 11 11 11 11 11 11 11 11 11 11 11 11 12 12 12 13 13 13 13 13 14 14 14 14 14 13 13 13 14 14 14 14 14 14 15 15 15 15 15 15 15 15 15
12 11 11 10 10 10 9 9 9 9 9 9 9 10 10 10 10 10 10 11 11 11 11 10 11 11 11 11 11 11 11 11 11 11 12 12 12 12 13 13 13 13 14 14 14 14 14 14 14 14 14 14 14 14 14 15 15 15 15 15 15 16 16 16 16 16 15 15 15
11 10 10 9 9 9 9 9 9 9 9 10 10 10 10 10 10 11 11 11 11 11 11 11 11 11 11 11 11 11 11 12 12 12 12 13 13 13 13 13 13 13 13 13 13 13 13 13 13 13 13 13 14 14 14 14 14 14 14 15 15 15 15 15 15 15 15 15 15
10 9 9 9 9 9 9 9 9 9 9 10 10 10 10 10 11 11 11 11 11 11 11 11 11 11 11 11 11 11 12 12 12 13 13 13 13 13 13 12 12 12 12 12 12 12 12 12 12 12 12 12 12 13 13 13 13 13 13 14 14 14 14 15 15 15 15 15 15
9 9 9 9 9 9 9 9 9 9 9 10 10 10 10 10 11 11 11 11 11 12 11 11 11 11 11 12 12 12 12 12 12 13 13 13 12 12 11 11 11 10 10 11 11 11 11 11 11 11 11 11 11 12 12 12 12 13 13 13 14 14 14 14 15 15 15 15 15
8 9 9 9 9 9 9 9 9 10 10 10 10 10 10 11 11 11 11 12 12 12 12 11 11 11 11 12 12 12 12 12 12 12 12 11 11 10 10 10 10 10 10 11 11 11 11 11 11 11 12 12 12 12 12 12 13 13 13 14 14 14 14 15 15 15 15 16 16
9 9 9 9 9 10 10 10 10 10 10 10 10 10 11 11 11 11 11 12 12 12 12 11 11 11 11 11 12 12 12 11 11 11 10 10 10 10 10 10 10 11 11 12 12 12 12 12 12 12 12 12 12 12 13 13 13 14 14 15 15 15 15 16 16 16 16 16 16
9 9 10 10 10 10 10 11 10 10 10 10 11 11 11 12 12 12 12 12 12 12 11 11 11 11 11 11 11 11 11 10 10 10 9 9 10 10 10 11 11 12 12 12 12 13 13 13 13 13 13 13 13 13 14 14 15 15 16 16 16 16 16 16 17 17 17 17 17
10 10 10 10 10 11 11 11 11 11 11 11 11 11 12 11 12 12 12 12 11 11 11 11 11 10 10 10 10 10 10 9 9 9 9 10 10 10 11 11 12 12 12 12 12 12 13 13 13 13 14 14 14 14 15 15 16 16 16 17 17 18 18 18 17 17 18 18 18
10 10 10 10 11 11 11 11 11 11 11 11 11 11 11 12 12 12 12 11 11 10 10 10 10 10 10 10 10 9 9 9 9 9 9 10 10 10 11 10 10 10 10 11 11 12 13 13 14 14 15 15 15 15 16 16 16 17 17 18 18 18 18 18 18 18 18 18 18
10 10 10 10 10 10 10 11 11 11 11 11 11 11 12 12 12 12 11 10 10 10 10 10 9 9 10 10 9 9 9 9 9 9 9 10 9 9 9 8 8 8 8 9 10 11 12 13 14 15 16 16 16 16 16 17 17 17 18 18 18 18 18 18 18 19 19 19 19
9 9 9 10 9 10 10 11 11 11 11 11 11 12 12 12 12 12 11 10 10 10 10 9 9 9 9 9 9 9 8 8 8 8 9 9 8 7 7 6 6 6 7 7 9 10 12 13 15 16 17 17 17 17 17 17 17 18 18 18 18 18 19 19 19 20 20 20 20
9 9 9 9 9 10 10 10 10 11 11 11 12 12 12 12 12 12 11 10 10 9 9 9 9 9 9 8 8 8 8 8 8 7 7 7 7 6 5 5 5 5 6 6 8 10 12 13 15 16 17 18 18 17 17 17 18 18 18 18 18 19 20 20 20 20 20 20 20
8 8 8 8 9 9 9 10 10 10 11 11 12 12 13 13 12 12 11 10 9 9 9 9 9 9 8 8 8 8 8 8 7 6 6 5 6 5 5 4 4 5 5 6 8 10 11 13 15 16 18 18 18 18 18 18 18 18 18 19 20 20 21 21 21 20 20 19 18
8 8 9 9 9 9 9 10 10 10 11 12 12 13 13 13 12 12 11 11 10 10 9 9 9 9 8 8 8 8 7 7 6 6 6 5 5 5 5 5 5 5 6 6 8 10 12 14 16 17 18 19 18 18 18 18 18 18 19 20 21 22 22 21 20 19 18 16 15
9 9 9 9 9 9 9 10 10 10 11 12 13 13 13 13 13 12 12 11 11 10 10 10 9 9 9 9 9 8 8 7 6 6 6 6 5 5 5 5 5 6 6 7 9 11 13 15 17 18 19 20 19 19 19 19 19 20 20 21 22 22 21 20 18 16 15 14 14
10 10 10 10 10 10 10 10 10 11 11 12 13 13 14 14 13 13 12 12 11 11 10 10 10 9 9 9 9 9 9 8 7 6 6 6 6 6 6 6 6 6 7 9 11 13 16 17 19 20 20 20 20 20 20 19 20 21 22 22 22 21 20 17 15 14 13 13 13
10 10 10 10 10 10 10 10 10 11 12 12 13 13 14 14 14 13 13 12 12 11 11 10 10 10 9 9 9 8 8 8 8 7 6 5 6 6 6 6 6 8 9 12 14 16 18 20 21 22 21 21 20 20 20 21 21 22 22 22 21 19 17 14 13 12 12 13 13
10 10 10 10 10 10 11 11 11 11 12 13 14 14 14 14 14 13 13 13 13 12 12 11 11 11 10 10 9 8 7 7 7 7 6 5 6 6 6 7 7 9 12 14 17 19 20 22 23 23 22 22 21 21 21 21 22 22 22 22 19 16 13 11 11 11 12 12 13
10 10 10 10 10 11 11 11 12 12 13 13 14 15 15 15 15 14 14 13 13 13 12 12 12 11 11 10 10 8 7 6 6 6 6 6 6 6 7 7 9 12 14 17 20 22 23 24 24 24 23 22 22 22 21 21 22 21 20 19 16 13 11 10 10 11 12 12 12
10 10 10 10 11 11 12 12 13 13 13 14 14 15 16 16 16 15 14 14 14 13 13 13 12 11 10 11 10 9 7 6 6 6 6 6 6 7 7 9 11 14 18 21 23 24 25 25 25 25 24 23 22 22 21 21 20 19 17 14 11 10 9 9 10 11 12 12 11
10 10 11 11 12 12 12 13 14 14 14 14 15 16 17 17 17 16 15 14 14 13 13 13 12 11 10 10 10 9 8 6 6 6 6 7 7 8 9 11 14 17 21 24 26 26 26 26 26 25 24 23 22 21 20 19 17 15 13 11 9 9 9 10 11 11 11 10 9
10 11 11 12 12 13 13 14 14 14 15 15 16 17 18 18 18 17 16 16 14 13 13 13 12 11 10 10 9 8 8 7 6 6 6 7 8 10 12 14 18 21 24 27 27 27 27 26 25 24 23 22 20 19 18 16 14 12 11 10 10 10 10 11 11 11 10 9 8
Height
3116 3114 3113 3112 3110 3109 3107 3105 3104 3102 3101 3099 3098 3096 3094 3093 3091 3089 3088 3087 3085 3084 3082 3081 3080 3079 3078 3076 3075 3074 3072 3071 3069 3068 3067 3065 3064 3063 3061 3060 3058 3057 3056 3054 3053 3051 3050 3048 3046 3044 3043 3042 3041 3040 3039 3038 3037 3036 3034 3033 3031 3030 3029 3027 3026 3025 3024 3023 3022
3113 3112 3110 3109 3107 3105 3104 3102 3101 3099 3098 3096 3095 3093 3091 3089 3088 3086 3085 3084 3082 3080 3079 3078 3076 3075 3074 3073 3071 3070 3069 3068 3066 3065 3063 3062 3061 3059 3058 3057 3055 3054 3053 3051 3050 3048 3047 3045 3043 3041 3039 3038 3037 3036 3035 3034 3034 3032 3031 3029 3028 3027 3025 3024 3022 3022 3021 3020 3018
3111 3109 3107 3106 3104 3102 3101 3099 3098 3096 3095 3093 3092 3090 3088 3087 3085 3083 3082 3080 3079 3077 3075 3074 3073 3072 3070 3069 3068 3067 3065 3064 3063 3061 3060 3059 3058 3056 3055 3053 3052 3051 3049 3048 3046 3045 3043 3042 3039 3038 3036 3034 3034 3033 3032 3031 3030 3029 3027 3025 3024 3023 3021 3020 3019 3018 3017 3016 3014
3108 3106 3105 3103 3101 3099 3098 3097 3095 3094 3092 3090 3089 3087 3085 3084 3082 3080 3079 3077 3076 3074 3072 3071 3069 3068 3067 3066 3064 3063 3062 3060 3059 3058 3057 3055 3054 3053 3051 3050 3049 3047 3046 3044 3043 3042 3040 3038 3036 3034 3032 3031 3030 3029 3028 3027 3026 3024 3023 3021 3020 3019 3017 3016 3015 3014 3013 3012 3010
3105 3104 3102 3100 3099 3097 3095 3094 3093 3091 3089 3088 3086 3084 3083 3081 3079 3077 3076 3074 3073 3071 3069 3068 3066 3065 3063 3062 3061 3059 3058 3057 3055 3054 3053 3052 3051 3049 3048 3047 3045 3044 3043 3041 3040 3038 3037 3035 3033 3030 3029 3028 3026 3025 3024 3023 3022 3020 3019 3017 3016 3015 3014 3012 3011 3010 3009 3007 3006
3103 3101 3100 3098 3096 3095 3093 3091 3090 3088 3087 3085 3083 3082 3079 3078 3076 3074 3073 3071 3069 3068 3066 3065 3063 3062 3060 3059 3057 3056 3055 3053 3052 3050 3049 3048 3047 3046 3044 3043 3042 3040 3039 3038 3036 3035 3033 3031 3029 3027 3026 3024 3023 3022 3021 3020 3019 3017 3015 3014 3012 3011 3009 3008 3007 3006 3005 3003 3002
3101 3099 3097 3096 3094 3092 3090 3089 3087 3085 3084 3082 3080 3079 3077 3075 3073 3071 3070 3068 3066 3065 3063 3062 3060 3059 3057 3055 3054 3053 3051 3050 3048 3047 3046 3044 3043 3042 3041 3039 3038 3037 3035 3034 3033 3031 3029 3028 3026 3024 3022 3021 3020 3019 3017 3017 3015 3013 3011 3010 3008 3007 3006 3004 3003 3002 3001 2999 2998
3099 3097 3095 3093 3091 3089 3088 3086 3084 3083 3081 3079 3078 3076 3074 3072 3070 3069 3067 3065 3064 3062 3060 3059 3057 3055 3054 3052 3051 3049 3048 3046 3045 3044 3042 3041 3039 3038 3037 3036 3034 3033 3032 3030 3029 3027 3026 3024 3022 3020 3019 3018 3016 3015 3014 3013 3011 3009 3008 3006 3005 3004 3002 3001 2999 2998 2996 2995 2994
3096 3094 3092 3090 3089 3087 3085 3083 3082 3080 3078 3076 3075 3073 3071 3069 3067 3065 3064 3062 3060 3059 3057 3055 3054 3052 3051 3049 3048 3046 3044 3043 3042 3040 3039 3038 3036 3035 3034 3032 3031 3029 3028 3027 3025 3024 3022 3020 3018 3017 3015 3014 3013 3011 3010 3009 3008 3005 3004 3003 3001 3000 2999 2997 2996 2994 2993 2991 2989
3093 3091 3089 3088 3086 3084 3082 3080 3079 3077 3075 3074 3072 3070 3068 3066 3064 3062 3061 3059 3057 3055 3054 3052 3050 3049 3047 3046 3044 3043 3041 3039 3038 3037 3035 3034 3033 3032 3030 3029 3028 3026 3025 3024 3022 3020 3018 3016 3014 3013 3012 3010 3009 3008 3006 3005 3004 3002 3000 2999 2998 2996 2995 2994 2993 2991 2989 2987 2985
3090 3089 3087 3085 3083 3081 3079 3078 3076 3074 3072 3070 3069 3067 3065 3063 3061 3059 3057 3055 3054 3052 3051 3049 3047 3045 3044 3042 3041 3039 3038 3036 3034 3033 3032 3030 3029 3028 3027 3025 3024 3023 3021 3020 3019 3017 3015 3013 3011 3009 3008 3007 3005 3004 3002 3001 2999 2998 2996 2995 2994 2992 2991 2989 2989 2987 2985 2983 2981
3088 3086 3084 3082 3080 3078 3076 3074 3073 3071 3069 3068 3066 3064 3062 3060 3058 3056 3054 3053 3051 3049 3047 3046 3044 3042 3040 3039 3037 3036 3034 3033 3031 3029 3028 3027 3025 3024 3023 3022 3020 3019 3018 3016 3014 3013 3011 3009 3007 3006 3004 3003 3001 3000 2998 2997 2995 2994 2992 2990 2989 2988 2986 2985 2984 2983 2981 2979 2977
3085 3083 3081 3079 3077 3075 3073 3071 3070 3068 3066 3064 3063 3061 3059 3057 3055 3053 3051 3049 3048 3046 3044 3042 3041 3039 3037 3035 3034 3032 3030 3029 3027 3026 3024 3023 3022 3020 3019 3018 3016 3015 3014 3012 3010 3009 3007 3005 3003 3002 3000 2999 2997 2996 2994 2993 2991 2989 2988 2986 2985 2984 2982 2981 2980 2978 2977 2974 2972
3082 3080 3078 3076 3074 3072 3070 3068 3067 3065 3063 3062 3060 3058 3056 3054 3052 3050 3048 3046 3044 3043 3041 3039 3037 3035 3034 3032 3030 3029 3027 3025 3024 3022 3021 3019 3018 3016 3015 3014 3012 3011 3009 3008 3006 3004 3003 3001 2999 2997 2996 2994 2993 2992 2990 2989 2987 2985 2983 2982 2980 2979 2978 2976 2975 2974 2972 2969 2968
3079 3077 3075 3073 3071 3069 3067 3065 3064 3062 3060 3058 3056 3054 3053 3051 3049 3047 3045 3043 3041 3039 3037 3035 3034 3032 3030 3029 3027 3025 3023 3021 3020 3018 3017 3015 3014 3013 3011 3009 3008 3006 3005 3004 3002 3000 2999 2997 2995 2993 2991 2989 2988 2987 2986 2984 2982 2980 2979 2977 2976 2974 2973 2971 2970 2969 2967 2965 2963
3076 3074 3072 3070 3068 3066 3064 3062 3060 3059 3057 3055 3053 3051 3049 3047 3045 3044 3041 3039 3038 3036 3034 3032 3030 3028 3027 3025 3023 3021 3019 3018 3016 3014 3013 3011 3010 3008 3007 3005 3004 3002 3001 2999 2997 2996 2994 2993 2991 2989 2987 2985 2984 2982 2981 2979 2978 2976 2974 2973 2971 2969 2968 2967 2965 2964 2962 2960 2958
3073 3071 3069 3067 3065 3063 3061 3059 3057 3055 3054 3052 3050 3048 3046 3044 3042 3040 3038 3036 3034 3032 3030 3029 3027 3025 3023 3021 3019 3018 3016 3014 3012 3011 3009 3007 3006 3004 3003 3001 2999 2998 2996 2995 2993 2991 2990 2988 2986 2984 2982 2980 2979 2977 2976 2974 2973 2971 2969 2968 2966 2964 2963 2962 2960 2958 2956 2954 2953
3069 3068 3066 3064 3062 3060 3058 3056 3054 3052 3050 3049 3046 3044 3043 3040 3039 3036 3034 3033 3031 3029 3026 3024 3023 3021 3019 3018 3016 3014 3012 3010 3009 3007 3005 3004 3002 3000 2998 2997 2995 2994 2992 2990 2989 2987 2985 2984 2982 2980 2978 2976 2974 2972 2971 2969 2968 2966 2965 2963 2962 2960 2958 2957 2955 2953 2951 2949 2948
3066 3064 3063 3061 3059 3057 3055 3053 3051 3049 3047 3045 3043 3041 3039 3037 3035 3033 3031 3029 3027 3025 3023 3021 3019 3017 3016 3014 3012 3010 3009 3007 3005 3003 3001 3000 2998 2996 2994 2993 2991 2989 2988 2986 2984 2983 2981 2979 2978 2975 2974 2971 2969 2968 2966 2964 2963 2961 2960 2958 2957 2955 2954 2952 2950 2949 2947 2945 2943
3063 3061 3059 3057 3056 3054 3052 3050 3048 3046 3044 3042 3040 3038 3036 3034 3032 3030 3028 3025 3024 3021 3019 3017 3015 3014 3012 3010 3008 3007 3005 3003 3001 2999 2997 2996 2994 2992 2990 2989 2987 2985 2984 2982 2981 2979 2977 2975 2973 2971 2969 2967 2965 2963 2962 2960 2958 2956 2955 2954 2952 2950 2949 2947 2945 2944 2942 2940 2939
3059 3058 3056 3054 3052 3050 3048 3046 3044 3042 3040 3038 3036 3034 3032 3030 3028 3026 3024 3022 3020 3018 3016 3014 3012 3010 3008 3006 3004 3003 3001 2999 2997 2995 2994 2992 2990 2988 2987 2985 2983 2981 2980 2978 2977 2975 2973 2971 2969 2967 2965 2963 2961 2959 2957 2956 2954 2952 2950 2949 2947 2946 2944 2942 2941 2939 2937 2936 2934
3056 3054 3052 3050 3049 3047 3045 3043 3041 3039 3037 3034 3032 3030 3028 3026 3024 3022 3020 3018 3016 3014 3012 3010 3008 3006 3004 3002 3001 2999 2997 2995 2994 2992 2990 2988 2986 2984 2983 2981 2979 2977 2976 2974 2973 2971 2969 2966 2964 2962 2960 2959 2956 2954 2953 2951 2949 2948 2946 2944 2943 2941 2939 2938 2936 2934 2932 2931 2929
3053 3051 3049 3047 3045 3043 3041 3039 3037 3035 3033 3031 3029 3026 3024 3022 3020 3018 3016 3014 3012 3010 3008 3006 3004 3002 3001 2999 2997 2995 2993 2992 2990 2988 2987 2985 2983 2981 2979 2977 2975 2974 2972 2970 2969 2966 2964 2962 2960 2958 2956 2954 2952 2950 2949 2947 2944 2943 2941 2939 2938 2936 2935 2933 2932 2930 2928 2927 2925
3049 3047 3045 3043 3041 3039 3037 3035 3033 3031 3029 3027 3025 3023 3021 3019 3016 3014 3012 3010 3009 3006 3004 3003 3000 2999 2997 2995 2994 2992 2990 2988 2986 2984 2983 2982 2980 2978 2976 2974 2972 2970 2968 2966 2964 2962 2960 2957 2955 2953 2951 2949 2947 2946 2944 2942 2940 2938 2936 2935 2933 2932 2930 2929 2927 2926 2924 2922 2921
3046 3044 3042 3039 3038 3036 3034 3031 3029 3027 3025 3023 3021 3019 3017 3015 3013 3011 3009 3007 3005 3003 3001 2999 2997 2995 2994 2992 2990 2988 2986 2984 2983 2981 2979 2978 2976 2974 2972 2970 2968 2966 2964 2963 2961 2958 2956 2953 2951 2948 2946 2944 2942 2941 2939 2937 2936 2934 2932 2930 2928 2927 2925 2924 2923 2921 2920 2918 2917
3042 3040 3038 3036 3034 3032 3030 3028 3026 3024 3021 3019 3017 3015 3013 3011 3009 3007 3005 3003 3001 2999 2997 2995 2994 2992 2990 2988 2987 2985 2983 2981 2979 2977 2976 2974 2973 2971 2969 2967 2965 2963 2961 2959 2957 2954 2952 2949 2947 2944 2941 2939 2937 2936 2934 2932 2931 2929 2927 2925 2924 2922 2920 2919 2918 2917 2915 2914 2912
3039 3036 3034 3033 3031 3029 3026 3024 3022 3020 3018 3016 3014 3012 3009 3008 3005 3003 3001 2999 2997 2995 2994 2992 2990 2988 2986 2985 2983 2981 2979 2978 2976 2974 2972 2970 2969 2967 2965 2963 2961 2959 2957 2955 2953 2951 2948 2946 2943 2940 2938 2935 2933 2931 2929 2928 2926 2924 2923 2920 2919 2917 2916 2914 2913 2912 2910 2909 2908
3035 3033 3031 3029 3027 3025 3023 3021 3019 3016 3014 3012 3010 3008 3006 3004 3002 3000 2998 2996 2994 2992 2990 2988 2986 2985 2983 2981 2979 2978 2976 2974 2972 2970 2969 2967 2965 2963 2962 2959 2957 2955 2953 2951 2949 2946 2944 2942 2939 2936 2934 2931 2928 2926 2924 2923 2921 2919 2918 2916 2914 2913 2911 2910 2909 2907 2906 2905 2904
3032 3029 3028 3026 3024 3022 3019 3017 3015 3013 3011 3009 3007 3004 3002 3000 2998 2996 2994 2992 2990 2988 2986 2984 2983 2981 2979 2978 2976 2974 2972 2970 2969 2967 2965 2963 2961 2959 2957 2955 2953 2951 2949 2947 2945 2942 2940 2937 2935 2932 2930 2927 2924 2922 2920 2918 2917 2915 2913 2912 2910 2909 2907 2906 2904 2903 2902 2901 2899
3029 3026 3024 3022 3020 3018 3016 3014 3012 3009 3007 3005 3003 3001 2999 2997 2995 2993 2991 2989 2987 2985 2983 2981 2979 2977 2975 2974 2972 2970 2969 2967 2965 2963 2961 2959 2957 2955 2953 2951 2949 2947 2945 2943 2940 2938 2935 2933 2930 2928 2926 2923 2920 2918 2915 2914 2912 2911 2909 2908 2906 2905 2904 2902 2901 2899 2898 2897 2896
3025 3023 3021 3019 3017 3014 3012 3010 3008 3006 3004 3001 2999 2997 2995 2993 2991 2989 2987 2985 2983 2981 2979 2978 2976 2974 2972 2970 2969 2967 2965 2963 2961 2959 2957 2954 2953 2951 2949 2947 2945 2943 2941 2939 2936 2934 2931 2929 2926 2924 2921 2919 2916 2914 2911 2910 2908 2906 2905 2904 2902 2901 2900 2899 2897 2896 2895 2894 2893
3022 3020 3018 3015 3013 3011 3009 3007 3004 3002 3000 2998 2996 2994 2991 2989 2987 2985 2984 2981 2979 2977 2976 2974 2972 2970 2969 2967 2965 2963 2961 2959 2957 2955 2953 2950 2948 2946 2944 2943 2941 2939 2936 2934 2932 2929 2927 2924 2922 2919 2917 2915 2912 2910 2908 2906 2904 2903 2901 2900 2899 2897 2896 2895 2894 2893 2892 2891 2889
3019 3016 3014 3012 3010 3008 3005 3003 3001 2999 2996 2994 2992 2990 2988 2985 2983 2981 2979 2978 2976 2974 2972 2970 2968 2966 2964 2963 2961 2959 2957 2955 2953 2951 2949 2947 2944 2942 2940 2938 2937 2934 2932 2930 2927 2925 2922 2920 2918 2915 2913 2911 2908 2906 2904 2902 2900 2899 2897 2896 2895 2894 2893 2892 2891 2890 2889 2888 2887
3016 3013 3011 3009 3006 3004 3002 2999 2997 2995 2993 2990 2988 2986 2984 2982 2979 2977 2975 2974 2972 2970 2968 2966 2964 2963 2961 2959 2957 2955 2953 2951 2949 2947 2945 2943 2940 2938 2936 2934 2932 2930 2928 2926 2923 2920 2918 2916 2913 2911 2909 2906 2904 2902 2900 2899 2897 2895 2894 2893 2892 2891 2890 2889 2888 2887 2886 2885 2884
3012 3010 3007 3005 3003 3000 2998 2996 2993 2991 2989 2986 2984 2982 2980 2978 2975 2974 2971 2969 2967 2966 2964 2962 2961 2959 2957 2955 2953 2951 2949 2947 2945 2943 2941 2939 2936 2934 2932 2930 2928 2926 2924 2921 2919 2916 2914 2911 2909 2907 2904 2902 2900 2898 2896 2895 2893 2892 2891 2889 2889 2888 2887 2886 2885 2884 2884 2883 2882
3009 3006 3004 3001 2999 2996 2994 2992 2989 2987 2984 2982 2980 2978 2976 2974 2971 2969 2967 2965 2964 2961 2960 2958 2957 2955 2953 2951 2949 2947 2945 2943 2941 2939 2936 2934 2932 2930 2928 2926 2924 2922 2920 2917 2914 2912 2910 2907 2905 2903 2900 2898 2896 2894 2893 2891 2890 2889 2888 2887 2886 2885 2884 2884 2883 2882 2881 2880 2879
3005 3002 3000 2997 2995 2992 2990 2988 2985 2983 2980 2978 2976 2974 2971 2969 2967 2965 2963 2961 2959 2957 2955 2954 2953 2951 2949 2947 2945 2943 2941 2939 2937 2934 2932 2930 2928 2926 2924 2922 2920 2918 2916 2913 2910 2908 2905 2903 2901 2899 2897 2894 2893 2891 2889 2888 2887 2886 2885 2884 2883 2883 2882 2881 2880 2880 2879 2878 2877
3001 2999 2996 2993 2991 2988 2986 2984 2981 2979 2976 2974 2971 2969 2967 2965 2963 2961 2959 2957 2955 2953 2951 2950 2949 2947 2945 2943 2941 2939 2937 2935 2933 2931 2929 2926 2924 2922 2920 2918 2916 2914 2912 2909 2906 2904 2902 2899 2897 2895 2893 2891 2889 2888 2886 2885 2884 2883 2882 2881 2881 2880 2880 2879 2878 2877 2876 2876 2875
2998 2995 2992 2989 2987 2984 2982 2979 2977 2974 2972 2969 2967 2965 2963 2961 2959 2957 2955 2953 2951 2949 2947 2946 2944 2943 2941 2939 2937 2935 2933 2932 2929 2927 2925 2923 2921 2919 2916 2914 2912 2910 2908 2905 2902 2900 2898 2896 2894 2892 2890 2888 2886 2885 2883 2882 2881 2880 2879 2879 2878 2878 2877 2877 2876 2875 2874 2873 2873
2994 2991 2988 2985 2983 2980 2978 2975 2973 2970 2968 2965 2963 2960 2959 2957 2955 2953 2951 2949 2947 2945 2944 2942 2940 2939 2937 2935 2933 2931 2930 2928 2926 2924 2922 2919 2917 2915 2913 2910 2908 2906 2904 2901 2899 2896 2894 2892 2890 2889 2887 2885 2884 2882 2881 2880 2879 2878 2877 2877 2876 2875 2875 2874 2874 2873 2872 2871 2870
2990 2987 2984 2982 2979 2976 2974 2971 2969 2966 2964 2961 2959 2957 2954 2953 2951 2949 2947 2946 2944 2942 2940 2939 2937 2935 2934 2932 2929 2928 2926 2924 2923 2921 2919 2916 2914 2911 2909 2906 2904 2902 2899 2898 2895 2893 2891 2889 2888 2886 2884 2883 2881 2880 2879 2878 2877 2876 2875 2875 2874 2873 2872 2872 2871 2870 2869 2869 2868